| time (UTC) | temp F | wind direction | speed MPH | gust MPH | rain 1hr in | rain 24hr in | rain mn in | humidity % | barometer mb |
| 20260906085212 | 53 | 123 | 0.0 | 0.0 | 0.00 | 0.00 | 0.00 | 94 | 1014.7 |
| 20260906084713 | 53 | 123 | 0.0 | 0.0 | 0.00 | 0.00 | 0.00 | 94 | 1014.7 |
| 20260906084212 | 54 | 123 | 0.0 | 0.0 | 0.00 | 0.00 | 0.00 | 94 | 1014.7 |
| 20260906083712 | 54 | 123 | 0.0 | 0.0 | 0.00 | 0.00 | 0.00 | 94 | 1014.9 |
| 20260906083220 | 54 | 123 | 0.0 | 0.0 | 0.00 | 0.00 | 0.00 | 93 | 1014.8 |
| 20260906082711 | 54 | 123 | 0.0 | 0.0 | 0.00 | 0.00 | 0.00 | 93 | 1015.0 |
| 20260906082213 | 54 | 123 | 0.0 | 0.0 | 0.00 | 0.00 | 0.00 | 93 | 1014.9 |
| 20260906081712 | 54 | 123 | 0.0 | 0.0 | 0.00 | 0.00 | 0.00 | 93 | 1014.9 |
| 20260906081453 | 54 | 123 | 0.0 | 0.0 | 0.00 | 0.00 | 0.00 | 92 | 1014.9 |
| 20260906080711 | 54 | 123 | 0.0 | 0.0 | 0.00 | 0.00 | 0.00 | 92 | 1014.9 |
| 20260906080212 | 54 | 123 | 0.0 | 0.0 | 0.00 | 0.00 | 0.00 | 92 | 1014.7 |
| 20260906075712 | 55 | 123 | 0.0 | 0.0 | 0.00 | 0.00 | 0.00 | 92 | 1014.9 |
| 20260906075212 | 55 | 123 | 0.0 | 0.0 | 0.00 | 0.00 | 0.00 | 92 | 1014.9 |
| 20260906074954 | 55 | 123 | 0.0 | 0.0 | 0.00 | 0.00 | 0.00 | 91 | 1014.9 |
| 20260906074220 | 55 | 123 | 0.0 | 0.0 | 0.00 | 0.00 | 0.00 | 91 | 1014.8 |
| 20260906073711 | 55 | 123 | 0.0 | 0.0 | 0.00 | 0.00 | 0.00 | 92 | 1015.0 |
| 20260906073453 | 55 | 123 | 0.0 | 0.0 | 0.00 | 0.00 | 0.00 | 91 | 1014.9 |
| 20260906072712 | 55 | 123 | 0.0 | 0.0 | 0.00 | 0.00 | 0.00 | 91 | 1015.2 |
| 20260906072212 | 55 | 123 | 0.0 | 0.0 | 0.00 | 0.00 | 0.00 | 91 | 1015.1 |
| 20260906071711 | 55 | 123 | 0.0 | 0.0 | 0.00 | 0.00 | 0.00 | 91 | 1014.9 |
| 20260906071212 | 55 | 123 | 0.0 | 0.0 | 0.00 | 0.00 | 0.00 | 90 | 1015.1 |
| 20260906070712 | 55 | 123 | 0.0 | 0.0 | 0.00 | 0.00 | 0.00 | 90 | 1015.2 |
| 20260906070454 | 55 | 123 | 0.0 | 0.0 | 0.00 | 0.00 | 0.00 | 90 | 1014.9 |
| 20260906065712 | 55 | 123 | 0.0 | 0.0 | 0.00 | 0.00 | 0.00 | 90 | 1015.1 |
| 20260906065212 | 55 | 123 | 0.0 | 0.0 | 0.00 | 0.00 | 0.00 | 90 | 1015.0 |
| 20260906064711 | 55 | 123 | 0.0 | 0.0 | 0.00 | 0.00 | 0.00 | 89 | 1015.0 |
| 20260906064213 | 55 | 123 | 0.0 | 0.0 | 0.00 | 0.00 | 0.00 | 90 | 1015.3 |
| 20260906063712 | 55 | 123 | 0.0 | 0.0 | 0.00 | 0.00 | 0.00 | 90 | 1015.1 |
| 20260906063212 | 56 | 123 | 0.0 | 0.0 | 0.00 | 0.00 | 0.00 | 89 | 1015.4 |
| 20260906062957 | 56 | 123 | 0.0 | 0.0 | 0.00 | 0.00 | 0.00 | 89 | 1015.3 |
| 20260906062212 | 56 | 123 | 0.0 | 0.0 | 0.00 | 0.00 | 0.00 | 88 | 1015.1 |
| 20260906061711 | 56 | 122 | 0.0 | 0.0 | 0.00 | 0.00 | 0.00 | 88 | 1015.2 |
| 20260906061507 | 56 | 122 | 0.0 | 0.0 | 0.00 | 0.00 | 0.00 | 87 | 1015.0 |
| 20260906060712 | 57 | 91 | 0.0 | 0.0 | 0.00 | 0.00 | 0.00 | 87 | 1015.2 |
| 20260906060237 | 57 | 132 | 0.0 | 0.0 | 0.00 | 0.00 | 0.00 | 84 | 1015.1 |
| 20260906055212 | 57 | 133 | 0.0 | 0.0 | 0.00 | 0.00 | 0.00 | 86 | 1015.3 |
| 20260906054711 | 57 | 133 | 0.0 | 9.0 | 0.00 | 0.00 | 0.00 | 84 | 1014.9 |
| 20260906054212 | 57 | 133 | 0.0 | 9.0 | 0.00 | 0.00 | 0.00 | 85 | 1015.0 |
| 20260906053711 | 57 | 133 | 0.0 | 7.0 | 0.00 | 0.00 | 0.00 | 84 | 1015.2 |
| 20260906053505 | 58 | 133 | 0.0 | 2.0 | 0.00 | 0.00 | 0.00 | 84 | 1015.1 |
| 20260906052710 | 58 | 133 | 0.0 | 13.0 | 0.00 | 0.00 | 0.00 | 85 | 1015.1 |
| 20260906052212 | 58 | 133 | 2.0 | 13.0 | 0.00 | 0.00 | 0.00 | 84 | 1015.1 |
| 20260906052005 | 58 | 133 | 0.0 | 1.0 | 0.00 | 0.00 | 0.00 | 86 | 1015.1 |
| 20260906051213 | 58 | 133 | 0.0 | 1.0 | 0.00 | 0.00 | 0.00 | 85 | 1015.0 |
| 20260906050711 | 58 | 132 | 0.0 | 0.0 | 0.00 | 0.00 | 0.00 | 86 | 1015.2 |
| 20260906050212 | 58 | 133 | 0.0 | 0.0 | 0.00 | 0.00 | 0.00 | 86 | 1015.4 |
| 20260906045711 | 58 | 126 | 0.0 | 0.0 | 0.00 | 0.00 | 0.00 | 84 | 1015.2 |
| 20260906045212 | 58 | 120 | 0.0 | 0.0 | 0.00 | 0.00 | 0.00 | 84 | 1015.2 |
| 20260906044712 | 58 | 134 | 0.0 | 0.0 | 0.00 | 0.00 | 0.00 | 82 | 1015.3 |
| 20260906044503 | 59 | 134 | 0.0 | 0.0 | 0.00 | 0.00 | 0.00 | 83 | 1015.6 |
| 20260906043712 | 59 | 134 | 0.0 | 0.0 | 0.00 | 0.00 | 0.00 | 81 | 1015.6 |
| 20260906043212 | 59 | 134 | 0.0 | 0.0 | 0.00 | 0.00 | 0.00 | 81 | 1015.7 |
| 20260906042711 | 59 | 134 | 0.0 | 0.0 | 0.00 | 0.00 | 0.00 | 81 | 1015.4 |
| 20260906042213 | 59 | 134 | 0.0 | 0.0 | 0.00 | 0.00 | 0.00 | 81 | 1015.6 |
| 20260906042007 | 59 | 134 | 0.0 | 0.0 | 0.00 | 0.00 | 0.00 | 82 | 1015.4 |
| 20260906041212 | 59 | 134 | 0.0 | 0.0 | 0.00 | 0.00 | 0.00 | 82 | 1015.9 |
| 20260906040710 | 59 | 134 | 0.0 | 0.0 | 0.00 | 0.00 | 0.00 | 79 | 1015.4 |
| 20260906040216 | 59 | 134 | 0.0 | 0.0 | 0.00 | 0.00 | 0.00 | 80 | 1015.7 |
| 20260906035712 | 59 | 134 | 0.0 | 0.0 | 0.00 | 0.00 | 0.00 | 80 | 1015.6 |
| 20260906035213 | 60 | 136 | 0.0 | 0.0 | 0.00 | 0.00 | 0.00 | 79 | 1015.8 |
| 20260906034712 | 60 | 137 | 0.0 | 0.0 | 0.00 | 0.00 | 0.00 | 79 | 1015.6 |
| 20260906034534 | 60 | 136 | 0.0 | 0.0 | 0.00 | 0.00 | 0.00 | 78 | 1015.6 |
| 20260906034526 | 60 | 137 | 0.0 | 0.0 | 0.00 | 0.00 | 0.00 | 78 | 1015.4 |
| 20260906033212 | 60 | 137 | 0.0 | 0.0 | 0.00 | 0.00 | 0.00 | 78 | 1015.6 |
| 20260906032711 | 60 | 137 | 0.0 | 0.0 | 0.00 | 0.00 | 0.00 | 78 | 1015.7 |
| 20260906032213 | 61 | 137 | 0.0 | 0.0 | 0.00 | 0.00 | 0.00 | 77 | 1015.0 |
| 20260906031711 | 61 | 137 | 0.0 | 0.0 | 0.00 | 0.00 | 0.00 | 78 | 1015.3 |
| 20260906031503 | 61 | 137 | 0.0 | 0.0 | 0.00 | 0.00 | 0.00 | 77 | 1015.1 |
| 20260906030711 | 61 | 137 | 0.0 | 0.0 | 0.00 | 0.00 | 0.00 | 78 | 1015.2 |
| 20260906030212 | 61 | 137 | 0.0 | 0.0 | 0.00 | 0.00 | 0.00 | 77 | 1014.9 |
| 20260906030002 | 61 | 137 | 0.0 | 0.0 | 0.00 | 0.00 | 0.00 | 76 | 1015.3 |
| 20260906025212 | 61 | 137 | 0.0 | 0.0 | 0.00 | 0.00 | 0.00 | 77 | 1015.0 |
| 20260906024712 | 61 | 137 | 0.0 | 0.0 | 0.00 | 0.00 | 0.00 | 78 | 1015.0 |
| 20260906024211 | 62 | 137 | 0.0 | 0.0 | 0.00 | 0.00 | 0.00 | 79 | 1015.3 |
| 20260906023711 | 62 | 137 | 0.0 | 0.0 | 0.00 | 0.01 | 0.00 | 80 | 1015.3 |
| 20260906023212 | 62 | 137 | 0.0 | 0.0 | 0.00 | 0.01 | 0.00 | 78 | 1015.4 |
| 20260906022713 | 62 | 137 | 0.0 | 0.0 | 0.00 | 0.01 | 0.00 | 78 | 1014.9 |
| 20260906022212 | 63 | 137 | 0.0 | 0.0 | 0.00 | 0.01 | 0.00 | 77 | 1015.1 |
| 20260906021711 | 63 | 137 | 0.0 | 0.0 | 0.00 | 0.01 | 0.00 | 78 | 1015.1 |
| 20260906021213 | 63 | 137 | 0.0 | 0.0 | 0.00 | 0.01 | 0.00 | 77 | 1015.1 |
| 20260906020711 | 63 | 148 | 0.0 | 0.0 | 0.00 | 0.01 | 0.00 | 75 | 1015.0 |
| 20260906020211 | 64 | 148 | 0.0 | 0.0 | 0.00 | 0.01 | 0.00 | 75 | 1015.2 |
| 20260906015712 | 63 | 141 | 0.0 | 0.0 | 0.00 | 0.01 | 0.00 | 75 | 1015.1 |
| 20260906015454 | 64 | 141 | 0.0 | 2.0 | 0.00 | 0.02 | 0.00 | 73 | 1015.0 |
| 20260906014711 | 64 | 141 | 0.0 | 2.0 | 0.00 | 0.02 | 0.00 | 73 | 1015.2 |
| 20260906014212 | 64 | 139 | 0.0 | 0.0 | 0.00 | 0.02 | 0.00 | 73 | 1015.0 |
| 20260906013711 | 65 | 138 | 0.0 | 3.0 | 0.00 | 0.02 | 0.00 | 70 | 1014.9 |
| 20260906013213 | 65 | 138 | 0.0 | 4.0 | 0.00 | 0.02 | 0.00 | 67 | 1014.8 |
| 20260906012711 | 65 | 152 | 0.0 | 8.0 | 0.00 | 0.02 | 0.00 | 65 | 1015.0 |
| 20260906012455 | 65 | 148 | 0.0 | 8.0 | 0.00 | 0.02 | 0.00 | 68 | 1014.7 |
| 20260906011713 | 65 | 150 | 0.0 | 3.0 | 0.00 | 0.02 | 0.00 | 68 | 1014.8 |
| 20260906011212 | 65 | 127 | 0.0 | 0.0 | 0.00 | 0.02 | 0.00 | 60 | 1014.9 |
| 20260906010711 | 65 | 151 | 0.0 | 0.0 | 0.00 | 0.02 | 0.00 | 67 | 1014.9 |
| 20260906010213 | 65 | 151 | 0.0 | 0.0 | 0.00 | 0.02 | 0.00 | 66 | 1014.9 |
| 20260906005711 | 65 | 151 | 0.0 | 0.0 | 0.00 | 0.02 | 0.00 | 68 | 1014.8 |
| 20260906005211 | 66 | 151 | 0.0 | 0.0 | 0.00 | 0.02 | 0.00 | 70 | 1014.8 |
| 20260906004712 | 66 | 150 | 0.0 | 8.0 | 0.00 | 0.02 | 0.00 | 68 | 1014.7 |
| 20260906004212 | 67 | 150 | 0.0 | 13.0 | 0.00 | 0.02 | 0.00 | 63 | 1014.6 |
| 20260906003711 | 67 | 152 | 0.0 | 1.0 | 0.00 | 0.02 | 0.00 | 57 | 1014.7 |
| 20260906003457 | 67 | 153 | 0.0 | 1.0 | 0.00 | 0.02 | 0.00 | 57 | 1014.7 |
| 20260906002712 | 66 | 158 | 0.0 | 1.0 | 0.00 | 0.02 | 0.00 | 59 | 1014.7 |
| 20260906002212 | 66 | 160 | 0.0 | 6.0 | 0.00 | 0.02 | 0.00 | 65 | 1014.7 |
| 20260906001711 | 66 | 160 | 0.0 | 6.0 | 0.00 | 0.02 | 0.00 | 65 | 1014.7 |
| 20260906001211 | 66 | 160 | 0.0 | 0.0 | 0.00 | 0.02 | 0.00 | 62 | 1014.5 |
| 20260906000712 | 66 | 160 | 0.0 | 0.0 | 0.00 | 0.02 | 0.00 | 64 | 1014.5 |
| 20260906000212 | 66 | 160 | 0.0 | 0.0 | 0.00 | 0.02 | 0.00 | 62 | 1014.6 |
| 20260905235712 | 66 | 160 | 0.0 | 0.0 | 0.00 | 0.02 | 0.00 | 61 | 1014.4 |
| 20260905235211 | 66 | 161 | 0.0 | 0.0 | 0.00 | 0.02 | 0.00 | 67 | 1014.6 |
| 20260905235003 | 65 | 148 | 0.0 | 1.0 | 0.00 | 0.02 | 0.00 | 72 | 1014.7 |
| 20260905234212 | 65 | 122 | 0.0 | 4.0 | 0.00 | 0.02 | 0.00 | 66 | 1014.5 |
| 20260905233712 | 65 | 138 | 0.0 | 4.0 | 0.00 | 0.02 | 0.00 | 65 | 1014.6 |
| 20260905233212 | 66 | 143 | 0.0 | 1.0 | 0.00 | 0.02 | 0.00 | 65 | 1014.6 |
| 20260905232712 | 66 | 138 | 0.0 | 3.0 | 0.00 | 0.02 | 0.00 | 64 | 1014.9 |
| 20260905232211 | 66 | 123 | 0.0 | 6.0 | 0.00 | 0.02 | 0.00 | 67 | 1014.8 |
| 20260905231712 | 66 | 93 | 1.0 | 6.0 | 0.00 | 0.02 | 0.00 | 64 | 1014.9 |
| 20260905231212 | 66 | 136 | 0.0 | 0.0 | 0.00 | 0.02 | 0.00 | 71 | 1015.0 |
| 20260905230710 | 66 | 143 | 0.0 | 1.0 | 0.00 | 0.02 | 0.00 | 68 | 1015.2 |
| 20260905230212 | 66 | 124 | 0.0 | 2.0 | 0.00 | 0.02 | 0.00 | 70 | 1015.2 |
| 20260905230007 | 67 | 124 | 0.0 | 2.0 | 0.00 | 0.02 | 0.00 | 68 | 1015.0 |
| 20260905225211 | 67 | 121 | 0.0 | 2.0 | 0.00 | 0.02 | 0.00 | 61 | 1015.3 |
| 20260905225003 | 67 | 112 | 0.0 | 4.0 | 0.00 | 0.02 | 0.00 | 60 | 1015.2 |
| 20260905224213 | 67 | 118 | 0.0 | 4.0 | 0.00 | 0.02 | 0.00 | 67 | 1015.0 |
| 20260905223711 | 67 | 118 | 0.0 | 2.0 | 0.00 | 0.02 | 0.00 | 62 | 1015.4 |
| 20260905223211 | 67 | 110 | 0.0 | 0.0 | 0.00 | 0.02 | 0.00 | 62 | 1015.2 |
| 20260905222712 | 68 | 138 | 0.0 | 0.0 | 0.00 | 0.02 | 0.00 | 59 | 1014.9 |
| 20260905222216 | 67 | 161 | 0.0 | 0.0 | 0.00 | 0.02 | 0.00 | 65 | 1015.3 |
| 20260905221711 | 68 | 160 | 0.0 | 0.0 | 0.00 | 0.02 | 0.00 | 60 | 1015.2 |
| 20260905221213 | 68 | 158 | 0.0 | 2.0 | 0.00 | 0.02 | 0.00 | 59 | 1015.2 |
| 20260905220955 | 68 | 106 | 0.0 | 2.0 | 0.00 | 0.02 | 0.00 | 60 | 1015.3 |
| 20260905220212 | 68 | 168 | 0.0 | 2.0 | 0.00 | 0.02 | 0.00 | 59 | 1015.3 |
| 20260905215956 | 69 | 132 | 0.0 | 2.0 | 0.00 | 0.02 | 0.00 | 57 | 1015.3 |
| 20260905215503 | 69 | 130 | 0.0 | 2.0 | 0.00 | 0.02 | 0.00 | 57 | 1015.7 |
| 20260905214711 | 69 | 148 | 0.0 | 2.0 | 0.00 | 0.02 | 0.00 | 58 | 1015.4 |
| 20260905214212 | 69 | 140 | 0.0 | 2.0 | 0.00 | 0.02 | 0.00 | 59 | 1015.6 |
| 20260905213957 | 68 | 124 | 0.0 | 0.0 | 0.00 | 0.02 | 0.00 | 58 | 1015.4 |
| 20260905213502 | 68 | 146 | 0.0 | 2.0 | 0.00 | 0.02 | 0.00 | 59 | 1015.6 |
| 20260905212957 | 68 | 135 | 0.0 | 3.0 | 0.00 | 0.02 | 0.00 | 66 | 1015.2 |
| 20260905212212 | 68 | 138 | 0.0 | 8.0 | 0.00 | 0.02 | 0.00 | 59 | 1015.4 |
| 20260905211712 | 68 | 325 | 0.0 | 8.0 | 0.00 | 0.02 | 0.00 | 62 | 1015.4 |
| 20260905211212 | 67 | 22 | 0.0 | 4.0 | 0.00 | 0.02 | 0.00 | 61 | 1015.3 |
| 20260905210711 | 66 | 130 | 0.0 | 4.0 | 0.00 | 0.02 | 0.00 | 66 | 1015.3 |
| 20260905210212 | 67 | 142 | 0.0 | 4.0 | 0.00 | 0.02 | 0.00 | 73 | 1015.6 |
| 20260905205804 | 67 | 89 | 0.0 | 3.0 | 0.00 | 0.02 | 0.00 | 63 | 1015.7 |
| 20260905205525 | 67 | 148 | 0.0 | 7.0 | 0.00 | 0.02 | 0.00 | 71 | 1015.8 |
| 20260905204457 | 67 | 159 | 0.0 | 6.0 | 0.00 | 0.02 | 0.00 | 62 | 1015.7 |
| 20260905203956 | 66 | 145 | 0.0 | 7.0 | 0.00 | 0.02 | 0.00 | 60 | 1015.7 |
| 20260905203209 | 65 | 348 | 0.0 | 7.0 | 0.00 | 0.02 | 0.00 | 66 | 1015.7 |
| 20260905202710 | 65 | 139 | 0.0 | 6.0 | 0.00 | 0.02 | 0.00 | 64 | 1015.9 |
| 20260905202211 | 65 | 26 | 0.0 | 4.0 | 0.00 | 0.02 | 0.00 | 68 | 1015.8 |
| 20260905201708 | 65 | 102 | 0.0 | 4.0 | 0.00 | 0.02 | 0.00 | 71 | 1015.9 |
| 20260905201208 | 65 | 116 | 0.0 | 4.0 | 0.00 | 0.02 | 0.00 | 71 | 1015.9 |
| 20260905200958 | 66 | 136 | 0.0 | 4.0 | 0.00 | 0.02 | 0.00 | 66 | 1016.0 |
| 20260905200208 | 65 | 156 | 0.0 | 2.0 | 0.00 | 0.02 | 0.00 | 72 | 1015.7 |
| 20260905195709 | 65 | 128 | 0.0 | 3.0 | 0.00 | 0.02 | 0.00 | 70 | 1015.8 |
| 20260905195457 | 65 | 96 | 1.0 | 3.0 | 0.00 | 0.02 | 0.00 | 73 | 1015.9 |
| 20260905194709 | 65 | 141 | 0.0 | 7.0 | 0.00 | 0.02 | 0.00 | 71 | 1015.9 |
| 20260905194210 | 65 | 135 | 0.0 | 7.0 | 0.00 | 0.02 | 0.00 | 70 | 1015.9 |
| 20260905193709 | 64 | 131 | 0.0 | 13.0 | 0.00 | 0.02 | 0.00 | 71 | 1016.1 |
| 20260905193504 | 64 | 168 | 0.0 | 13.0 | 0.00 | 0.02 | 0.00 | 72 | 1016.1 |
| 20260905192708 | 64 | 161 | 0.0 | 0.0 | 0.00 | 0.02 | 0.00 | 72 | 1016.2 |
| 20260905192501 | 64 | 143 | 0.0 | 0.0 | 0.00 | 0.02 | 0.00 | 71 | 1016.2 |
| 20260905191959 | 63 | 107 | 0.0 | 0.0 | 0.00 | 0.02 | 0.00 | 76 | 1016.1 |
| 20260905191209 | 63 | 122 | 0.0 | 1.0 | 0.00 | 0.02 | 0.00 | 79 | 1016.3 |
| 20260905190708 | 63 | 134 | 0.0 | 1.0 | 0.00 | 0.02 | 0.00 | 74 | 1016.2 |
| 20260905190209 | 63 | 354 | 0.0 | 0.0 | 0.00 | 0.02 | 0.00 | 71 | 1016.0 |
| 20260905185958 | 63 | 105 | 0.0 | 0.0 | 0.00 | 0.02 | 0.00 | 75 | 1016.1 |
| 20260905185504 | 63 | 132 | 0.0 | 0.0 | 0.00 | 0.02 | 0.00 | 75 | 1016.2 |
| 20260905184708 | 62 | 88 | 0.0 | 6.0 | 0.00 | 0.02 | 0.00 | 80 | 1016.3 |
| 20260905184515 | 61 | 133 | 0.0 | 6.0 | 0.00 | 0.02 | 0.00 | 83 | 1016.4 |
| 20260905183801 | 61 | 139 | 0.0 | 0.0 | 0.00 | 0.02 | 0.00 | 82 | 1016.4 |
| 20260905183736 | 61 | 135 | 0.0 | 0.0 | 0.00 | 0.02 | 0.00 | 83 | 1016.3 |
| 20260905182710 | 61 | 140 | 0.0 | 0.0 | 0.00 | 0.02 | 0.00 | 85 | 1016.2 |
| 20260905182209 | 61 | 119 | 0.0 | 0.0 | 0.00 | 0.02 | 0.00 | 83 | 1016.5 |
| 20260905182003 | 61 | 326 | 0.0 | 0.0 | 0.00 | 0.02 | 0.00 | 80 | 1016.3 |
| 20260905181208 | 61 | 340 | 0.0 | 1.0 | 0.00 | 0.02 | 0.00 | 80 | 1016.6 |
| 20260905180708 | 60 | 128 | 0.0 | 1.0 | 0.00 | 0.02 | 0.00 | 83 | 1016.7 |
| 20260905180207 | 60 | 142 | 0.0 | 3.0 | 0.00 | 0.02 | 0.00 | 85 | 1016.7 |
| 20260905180002 | 60 | 142 | 0.0 | 7.0 | 0.00 | 0.02 | 0.00 | 82 | 1016.7 |
| 20260905175209 | 60 | 142 | 0.0 | 7.0 | 0.00 | 0.02 | 0.00 | 82 | 1016.9 |
| 20260905174708 | 60 | 146 | 0.0 | 0.0 | 0.00 | 0.02 | 0.00 | 85 | 1016.8 |
| 20260905174208 | 60 | 158 | 0.0 | 0.0 | 0.00 | 0.02 | 0.00 | 84 | 1016.8 |
| 20260905173708 | 60 | 140 | 0.0 | 0.0 | 0.00 | 0.02 | 0.00 | 87 | 1016.7 |
| 20260905173208 | 59 | 161 | 0.0 | 6.0 | 0.00 | 0.02 | 0.00 | 87 | 1016.7 |
| 20260905172707 | 58 | 131 | 0.0 | 6.0 | 0.00 | 0.02 | 0.00 | 89 | 1016.9 |
| 20260905172207 | 59 | 122 | 0.0 | 3.0 | 0.00 | 0.02 | 0.00 | 89 | 1016.7 |
| 20260905171709 | 58 | 138 | 0.0 | 3.0 | 0.00 | 0.02 | 0.00 | 90 | 1016.7 |
| 20260905171208 | 58 | 133 | 0.0 | 4.0 | 0.00 | 0.02 | 0.00 | 91 | 1016.7 |
| 20260905170707 | 58 | 129 | 0.0 | 4.0 | 0.00 | 0.02 | 0.00 | 92 | 1016.8 |
| 20260905170209 | 57 | 119 | 1.0 | 1.0 | 0.00 | 0.02 | 0.00 | 92 | 1016.6 |
| 20260905165708 | 57 | 139 | 0.0 | 2.0 | 0.00 | 0.02 | 0.00 | 93 | 1016.5 |
| 20260905165259 | 56 | 136 | 0.0 | 0.0 | 0.00 | 0.02 | 0.00 | 93 | 1016.5 |
| 20260905165233 | 56 | 141 | 0.0 | 2.0 | 0.00 | 0.02 | 0.00 | 93 | 1016.7 |
| 20260905164504 | 56 | 136 | 0.0 | 0.0 | 0.00 | 0.02 | 0.00 | 93 | 1016.6 |
| 20260905163708 | 56 | 132 | 0.0 | 0.0 | 0.00 | 0.02 | 0.00 | 92 | 1016.7 |
| 20260905163459 | 56 | 140 | 0.0 | 0.0 | 0.00 | 0.02 | 0.00 | 93 | 1016.4 |
| 20260905162710 | 55 | 135 | 0.0 | 0.0 | 0.00 | 0.02 | 0.00 | 94 | 1016.5 |
| 20260905162209 | 55 | 139 | 0.0 | 0.0 | 0.00 | 0.02 | 0.00 | 95 | 1016.5 |
| 20260905161708 | 55 | 140 | 0.0 | 0.0 | 0.00 | 0.02 | 0.00 | 96 | 1016.4 |
| 20260905161503 | 55 | 139 | 0.0 | 0.0 | 0.00 | 0.02 | 0.00 | 98 | 1016.6 |
| 20260905160709 | 54 | 228 | 0.0 | 0.0 | 0.00 | 0.02 | 0.00 | 98 | 1016.4 |
| 20260905160528 | 54 | 138 | 0.0 | 10.0 | 0.00 | 0.02 | 0.00 | 99 | 1016.3 |
| 20260905155711 | 53 | 153 | 0.0 | 10.0 | 0.00 | 0.02 | 0.00 | 99 | 1016.4 |
| 20260905155209 | 53 | 153 | 1.0 | 3.0 | 0.00 | 0.02 | 0.00 | 99 | 1016.4 |
| 20260905155025 | 53 | 153 | 0.0 | 0.0 | 0.00 | 0.02 | 0.00 | 99 | 1016.5 |
| 20260905154208 | 53 | 153 | 0.0 | 0.0 | 0.00 | 0.02 | 0.00 | 99 | 1016.4 |
| 20260905153709 | 53 | 153 | 0.0 | 0.0 | 0.00 | 0.02 | 0.00 | 99 | 1016.7 |
| 20260905153208 | 53 | 153 | 0.0 | 0.0 | 0.00 | 0.02 | 0.00 | 99 | 1016.6 |
| 20260905153014 | 53 | 153 | 0.0 | 0.0 | 0.00 | 0.02 | 0.00 | 99 | 1016.4 |
| 20260905152458 | 53 | 153 | 0.0 | 0.0 | 0.00 | 0.02 | 0.00 | 99 | 1016.2 |
| 20260905151707 | 53 | 153 | 0.0 | 0.0 | 0.00 | 0.02 | 0.00 | 99 | 1016.4 |
| 20260905151454 | 52 | 153 | 0.0 | 0.0 | 0.00 | 0.02 | 0.00 | 99 | 1016.2 |
| 20260905150708 | 52 | 153 | 0.0 | 0.0 | 0.00 | 0.02 | 0.00 | 99 | 1016.2 |
| 20260905150209 | 52 | 153 | 0.0 | 0.0 | 0.00 | 0.02 | 0.00 | 99 | 1016.2 |
| 20260905145709 | 52 | 153 | 0.0 | 0.0 | 0.00 | 0.02 | 0.00 | 99 | 1016.2 |
| 20260905145500 | 52 | 153 | 0.0 | 0.0 | 0.00 | 0.02 | 0.00 | 99 | 1016.1 |
| 20260905144707 | 52 | 153 | 0.0 | 0.0 | 0.00 | 0.02 | 0.00 | 99 | 1016.0 |
| 20260905144208 | 52 | 153 | 0.0 | 0.0 | 0.00 | 0.02 | 0.00 | 99 | 1015.9 |
| 20260905144003 | 51 | 153 | 0.0 | 0.0 | 0.00 | 0.02 | 0.00 | 99 | 1015.9 |
| 20260905143207 | 51 | 153 | 0.0 | 0.0 | 0.00 | 0.02 | 0.00 | 99 | 1016.0 |
| 20260905142709 | 51 | 153 | 0.0 | 4.0 | 0.00 | 0.02 | 0.00 | 99 | 1015.9 |
| 20260905142208 | 51 | 153 | 0.0 | 4.0 | 0.00 | 0.02 | 0.00 | 99 | 1015.9 |
| 20260905141709 | 50 | 153 | 0.0 | 0.0 | 0.00 | 0.02 | 0.00 | 99 | 1015.9 |
| 20260905141208 | 50 | 153 | 0.0 | 0.0 | 0.00 | 0.02 | 0.00 | 99 | 1016.1 |
| 20260905140707 | 50 | 153 | 0.0 | 0.0 | 0.00 | 0.02 | 0.00 | 99 | 1016.1 |
| 20260905140209 | 51 | 153 | 0.0 | 0.0 | 0.00 | 0.02 | 0.00 | 99 | 1016.0 |
| 20260905135708 | 51 | 153 | 0.0 | 0.0 | 0.00 | 0.02 | 0.00 | 99 | 1015.8 |
| 20260905135208 | 51 | 153 | 0.0 | 0.0 | 0.00 | 0.02 | 0.00 | 99 | 1015.7 |
| 20260905134710 | 51 | 153 | 0.0 | 0.0 | 0.00 | 0.02 | 0.00 | 99 | 1015.8 |
| 20260905134208 | 51 | 153 | 0.0 | 0.0 | 0.00 | 0.02 | 0.00 | 99 | 1015.8 |
| 20260905133707 | 50 | 153 | 0.0 | 0.0 | 0.00 | 0.02 | 0.00 | 99 | 1015.7 |
| 20260905133208 | 50 | 153 | 0.0 | 0.0 | 0.00 | 0.02 | 0.00 | 99 | 1015.9 |
| 20260905133036 | 50 | 153 | 0.0 | 0.0 | 0.00 | 0.02 | 0.00 | 99 | 1015.6 |
| 20260905132208 | 50 | 153 | 0.0 | 0.0 | 0.00 | 0.02 | 0.00 | 99 | 1015.9 |
| 20260905131709 | 50 | 153 | 0.0 | 0.0 | 0.00 | 0.02 | 0.00 | 99 | 1015.6 |
| 20260905131208 | 50 | 153 | 0.0 | 0.0 | 0.00 | 0.02 | 0.00 | 99 | 1015.8 |
| 20260905130708 | 50 | 153 | 0.0 | 0.0 | 0.00 | 0.02 | 0.00 | 99 | 1015.9 |
| 20260905130209 | 50 | 153 | 0.0 | 0.0 | 0.00 | 0.02 | 0.00 | 99 | 1015.6 |
| 20260905125708 | 50 | 153 | 0.0 | 0.0 | 0.00 | 0.02 | 0.00 | 99 | 1015.8 |
| 20260905125208 | 50 | 153 | 0.0 | 0.0 | 0.00 | 0.02 | 0.00 | 99 | 1015.6 |
| 20260905124709 | 50 | 153 | 0.0 | 0.0 | 0.00 | 0.02 | 0.00 | 99 | 1015.8 |
| 20260905124208 | 50 | 153 | 0.0 | 0.0 | 0.00 | 0.02 | 0.00 | 99 | 1015.4 |
| 20260905123708 | 50 | 153 | 0.0 | 0.0 | 0.00 | 0.02 | 0.00 | 99 | 1015.4 |
| 20260905123208 | 50 | 153 | 0.0 | 0.0 | 0.00 | 0.02 | 0.00 | 99 | 1015.2 |
| 20260905122709 | 50 | 153 | 0.0 | 0.0 | 0.00 | 0.02 | 0.00 | 99 | 1015.4 |
| 20260905122207 | 50 | 153 | 0.0 | 0.0 | 0.00 | 0.02 | 0.00 | 99 | 1015.4 |
| 20260905121708 | 50 | 153 | 0.0 | 0.0 | 0.00 | 0.02 | 0.00 | 99 | 1015.7 |
| 20260905121208 | 50 | 153 | 0.0 | 0.0 | 0.00 | 0.02 | 0.00 | 99 | 1015.7 |
| 20260905120709 | 50 | 153 | 0.0 | 0.0 | 0.00 | 0.02 | 0.00 | 99 | 1015.4 |
| 20260905120209 | 50 | 153 | 0.0 | 0.0 | 0.00 | 0.02 | 0.00 | 99 | 1015.4 |
| 20260905115708 | 50 | 153 | 0.0 | 0.0 | 0.00 | 0.02 | 0.00 | 99 | 1015.6 |
| 20260905115209 | 50 | 153 | 0.0 | 0.0 | 0.00 | 0.02 | 0.00 | 99 | 1015.4 |
| 20260905114707 | 50 | 153 | 0.0 | 0.0 | 0.00 | 0.02 | 0.00 | 99 | 1015.6 |
| 20260905114209 | 50 | 153 | 0.0 | 0.0 | 0.00 | 0.02 | 0.00 | 99 | 1015.2 |
| 20260905113708 | 50 | 153 | 0.0 | 0.0 | 0.00 | 0.02 | 0.00 | 99 | 1015.6 |
| 20260905113209 | 50 | 153 | 0.0 | 0.0 | 0.00 | 0.02 | 0.00 | 99 | 1015.3 |
| 20260905112707 | 50 | 153 | 0.0 | 0.0 | 0.00 | 0.02 | 0.00 | 99 | 1015.3 |
| 20260905112502 | 50 | 153 | 0.0 | 0.0 | 0.00 | 0.02 | 0.00 | 99 | 1015.3 |
| 20260905111709 | 50 | 153 | 0.0 | 0.0 | 0.00 | 0.02 | 0.00 | 99 | 1015.6 |
| 20260905111208 | 50 | 153 | 0.0 | 0.0 | 0.00 | 0.02 | 0.00 | 99 | 1015.2 |
| 20260905110708 | 50 | 153 | 0.0 | 0.0 | 0.00 | 0.02 | 0.00 | 99 | 1015.3 |
| 20260905110208 | 50 | 153 | 0.0 | 0.0 | 0.00 | 0.02 | 0.00 | 99 | 1015.3 |
| 20260905105707 | 50 | 153 | 0.0 | 0.0 | 0.00 | 0.02 | 0.00 | 99 | 1015.6 |
| 20260905105208 | 50 | 153 | 0.0 | 0.0 | 0.00 | 0.02 | 0.00 | 99 | 1015.3 |
| 20260905104959 | 51 | 153 | 0.0 | 0.0 | 0.00 | 0.02 | 0.00 | 99 | 1015.4 |
| 20260905104209 | 51 | 157 | 0.0 | 0.0 | 0.00 | 0.02 | 0.00 | 99 | 1015.4 |
| 20260905103707 | 51 | 157 | 0.0 | 0.0 | 0.00 | 0.02 | 0.00 | 99 | 1015.6 |
| 20260905103257 | 51 | 157 | 0.0 | 1.0 | 0.00 | 0.02 | 0.00 | 99 | 1015.2 |
| 20260905103233 | 51 | 157 | 0.0 | 0.0 | 0.00 | 0.02 | 0.00 | 99 | 1015.4 |
| 20260905102213 | 51 | 157 | 0.0 | 1.0 | 0.00 | 0.02 | 0.00 | 99 | 1015.3 |
| 20260905101709 | 51 | 155 | 0.0 | 0.0 | 0.00 | 0.02 | 0.00 | 99 | 1015.4 |
| 20260905101208 | 51 | 155 | 0.0 | 0.0 | 0.00 | 0.02 | 0.00 | 99 | 1015.6 |
| 20260905100708 | 51 | 155 | 0.0 | 0.0 | 0.00 | 0.02 | 0.00 | 99 | 1015.3 |
| 20260905100516 | 51 | 155 | 0.0 | 0.0 | 0.00 | 0.02 | 0.00 | 99 | 1015.3 |
| 20260905095709 | 51 | 155 | 0.0 | 0.0 | 0.00 | 0.02 | 0.00 | 99 | 1015.3 |
| 20260905095208 | 51 | 155 | 0.0 | 7.0 | 0.00 | 0.02 | 0.00 | 99 | 1015.2 |
| 20260905094708 | 51 | 155 | 0.0 | 7.0 | 0.00 | 0.02 | 0.00 | 99 | 1015.2 |
| 20260905094209 | 51 | 155 | 0.0 | 6.0 | 0.00 | 0.02 | 0.00 | 99 | 1015.2 |
| 20260905093700 | 52 | 157 | 0.0 | 0.0 | 0.00 | 0.02 | 0.00 | 99 | 1015.0 |
| 20260905093200 | 52 | 158 | 0.0 | 0.0 | 0.00 | 0.02 | 0.00 | 99 | 1015.1 |
| 20260905092704 | 52 | 158 | 0.0 | 0.0 | 0.00 | 0.02 | 0.00 | 99 | 1015.0 |
| 20260905092202 | 52 | 158 | 0.0 | 0.0 | 0.00 | 0.02 | 0.00 | 99 | 1014.9 |
| 20260905091701 | 52 | 157 | 0.0 | 0.0 | 0.00 | 0.02 | 0.00 | 99 | 1015.3 |
| 20260905091513 | 52 | 157 | 0.0 | 0.0 | 0.00 | 0.02 | 0.00 | 99 | 1014.9 |
| 20260905090701 | 52 | 157 | 0.0 | 0.0 | 0.00 | 0.02 | 0.00 | 99 | 1014.7 |
| 20260905090200 | 52 | 157 | 0.0 | 0.0 | 0.00 | 0.02 | 0.00 | 99 | 1014.9 |
| 20260905085704 | 52 | 157 | 0.0 | 0.0 | 0.00 | 0.02 | 0.00 | 99 | 1014.8 |